Location: Michelbach Markt
(48.1000°N, 15.7500°E)
Time: 03:44:47
(UTC+01:00)

ISS - Pass Details

Date: 05 December 2021
Orbit: 413 x 422 km, 51.6° (Epoch: 27 January)

Event Time Altitude Azimuth Distance (km) Brightness Sun altitude
Rises 17:00:05 0° 292° (WNW) 2,389 0.8 -9.0°
Reaches altitude 10° 17:02:12 10° 293° (WNW) 1,520 -0.3 -9.3°
Maximum altitude 17:05:37 83° 20° (NNE) 432 -3.8 -9.9°
Drops below altitude 10° 17:09:01 10° 111° (ESE) 1,507 -1.4 -10.4°
Enters shadow 17:09:18 - 111° (ESE) 1,622 -1.2 -10.4°
